Terug naar catalogus

STARLINK-31274

ActiefCommunicatieVLEO
NORAD 59078·PAYLOAD·🇺🇸 United States

Gelanceerd Feb 29, 2024 vanaf Cape Canaveral Space Force Station

Loading…

Volgende Passages (komende 24 uur)

TLE

VersSource: CelesTrak SupGP

Epoch: Sep 14, 2026, 21:02 UTC

1 59078C 24041E   26257.87687500 -.00023766  00000+0 -86114-3 0  2578
2 59078  43.0014 322.3520 0001499 275.8166 109.3982 15.27577689    18

Volg STARLINK-31274 in realtime met AllMySat

Download on the App Store